owner,sensor,date,latitude,longitude,vertical_datum,wind_speed,wind_to_direction,wind_speed_of_gust,qcFlag 
TCOON,ioos:station:TCOON:146:1,2017-07-01T00:30:00Z,28.1324,-97.0345,0.0,10.5,143.0,12.9,'1111122,1111122,1111122' 
TCOON,ioos:station:TCOON:146:1,2017-07-01T01:30:00Z,28.1324,-97.0345,0.0,9.0,138.0,11.6,'1111122,1111122,1111122' 
TCOON,ioos:station:TCOON:146:1,2017-07-01T02:30:00Z,28.1324,-97.0345,0.0,10.2,145.0,12.1,'1111122,1111122,1111122' 
TCOON,ioos:station:TCOON:146:1,2017-07-01T03:30:00Z,28.1324,-97.0345,0.0,10.0,145.0,12.1,'1111122,1111122,1111122' 
TCOON,ioos:station:TCOON:146:1,2017-07-01T04:30:00Z,28.1324,-97.0345,0.0,10.2,147.0,12.7,'1111122,1111122,1111122' 
TCOON,ioos:station:TCOON:146:1,2017-07-01T05:30:00Z,28.1324,-97.0345,0.0,10.3,153.0,12.7,'1111122,1111122,1111122' 
TCOON,ioos:station:TCOON:146:1,2017-07-01T06:30:00Z,28.1324,-97.0345,0.0,9.6,152.0,11.4,'1111122,1111122,1111122' 
TCOON,ioos:station:TCOON:146:1,2017-07-01T07:30:00Z,28.1324,-97.0345,0.0,9.9,154.0,11.8,'1111122,1111122,1111122' 
TCOON,ioos:station:TCOON:146:1,2017-07-01T08:30:00Z,28.1324,-97.0345,0.0,10.0,161.0,12.4,'1111122,1111122,1111122' 
TCOON,ioos:station:TCOON:146:1,2017-07-01T09:30:00Z,28.1324,-97.0345,0.0,8.6,163.0,10.5,'1111122,1111122,1111122' 
TCOON,ioos:station:TCOON:146:1,2017-07-01T10:30:00Z,28.1324,-97.0345,0.0,9.0,157.0,10.8,'1111122,1111122,1111122' 
TCOON,ioos:station:TCOON:146:1,2017-07-01T11:30:00Z,28.1324,-97.0345,0.0,9.2,159.0,11.1,'1111122,1111122,1111122' 
TCOON,ioos:station:TCOON:146:1,2017-07-01T12:30:00Z,28.1324,-97.0345,0.0,7.7,161.0,10.1,'1111122,1111122,1111122' 
TCOON,ioos:station:TCOON:146:1,2017-07-01T13:30:00Z,28.1324,-97.0345,0.0,8.0,155.0,10.4,'1111122,1111122,1111122' 
TCOON,ioos:station:TCOON:146:1,2017-07-01T14:30:00Z,28.1324,-97.0345,0.0,7.9,146.0,9.0,'1111122,1111122,1111122' 
TCOON,ioos:station:TCOON:146:1,2017-07-01T15:30:00Z,28.1324,-97.0345,0.0,7.1,141.0,8.4,'1111122,1111122,1111122' 
TCOON,ioos:station:TCOON:146:1,2017-07-01T16:30:00Z,28.1324,-97.0345,0.0,7.3,140.0,8.9,'1111122,1111122,1111122' 
TCOON,ioos:station:TCOON:146:1,2017-07-01T17:30:00Z,28.1324,-97.0345,0.0,7.7,138.0,9.2,'1111122,1111122,1111122' 
TCOON,ioos:station:TCOON:146:1,2017-07-01T18:30:00Z,28.1324,-97.0345,0.0,8.2,137.0,10.4,'1111122,1111122,1111122' 
TCOON,ioos:station:TCOON:146:1,2017-07-01T19:30:00Z,28.1324,-97.0345,0.0,6.6,129.0,8.3,'1111122,1111122,1111122' 
TCOON,ioos:station:TCOON:146:1,2017-07-01T20:30:00Z,28.1324,-97.0345,0.0,6.3,126.0,8.4,'1111122,1111122,1111122' 
TCOON,ioos:station:TCOON:146:1,2017-07-01T21:30:00Z,28.1324,-97.0345,0.0,5.8,121.0,8.4,'1111122,1111122,1111122' 
TCOON,ioos:station:TCOON:146:1,2017-07-01T22:30:00Z,28.1324,-97.0345,0.0,9.5,134.0,11.6,'1111122,1111122,1111122' 
TCOON,ioos:station:TCOON:146:1,2017-07-01T23:30:00Z,28.1324,-97.0345,0.0,9.1,135.0,11.0,'1111122,1111122,1111122' 
TCOON,ioos:station:TCOON:146:1,2017-07-02T00:30:00Z,28.1324,-97.0345,0.0,8.3,135.0,10.2,'1111122,1111122,1111122' 
TCOON,ioos:station:TCOON:146:1,2017-07-02T01:30:00Z,28.1324,-97.0345,0.0,9.0,136.0,10.4,'1111122,1111122,1111122' 
TCOON,ioos:station:TCOON:146:1,2017-07-02T02:30:00Z,28.1324,-97.0345,0.0,8.6,135.0,10.3,'1111122,1111122,1111122' 
TCOON,ioos:station:TCOON:146:1,2017-07-02T03:30:00Z,28.1324,-97.0345,0.0,8.5,138.0,10.3,'1111122,1111122,1111122' 
TCOON,ioos:station:TCOON:146:1,2017-07-02T04:30:00Z,28.1324,-97.0345,0.0,8.9,143.0,10.5,'1111122,1111122,1111122' 
TCOON,ioos:station:TCOON:146:1,2017-07-02T05:30:00Z,28.1324,-97.0345,0.0,7.9,143.0,9.1,'1111122,1111122,1111122' 
TCOON,ioos:station:TCOON:146:1,2017-07-02T06:30:00Z,28.1324,-97.0345,0.0,7.9,144.0,9.2,'1111122,1111122,1111122' 
TCOON,ioos:station:TCOON:146:1,2017-07-02T07:30:00Z,28.1324,-97.0345,0.0,8.1,145.0,9.8,'1111122,1111122,1111122' 
TCOON,ioos:station:TCOON:146:1,2017-07-02T08:30:00Z,28.1324,-97.0345,0.0,7.8,148.0,9.4,'1111122,1111122,1111122' 
TCOON,ioos:station:TCOON:146:1,2017-07-02T09:30:00Z,28.1324,-97.0345,0.0,8.3,145.0,9.6,'1111122,1111122,1111122' 
TCOON,ioos:station:TCOON:146:1,2017-07-02T10:30:00Z,28.1324,-97.0345,0.0,7.9,148.0,9.3,'1111122,1111122,1111122' 
TCOON,ioos:station:TCOON:146:1,2017-07-02T11:30:00Z,28.1324,-97.0345,0.0,7.5,149.0,9.3,'1111122,1111122,1111122' 
TCOON,ioos:station:TCOON:146:1,2017-07-02T12:30:00Z,28.1324,-97.0345,0.0,6.5,154.0,8.0,'1111122,1111122,1111122' 
TCOON,ioos:station:TCOON:146:1,2017-07-02T13:30:00Z,28.1324,-97.0345,0.0,6.6,153.0,7.9,'1111122,1111122,1111122' 
TCOON,ioos:station:TCOON:146:1,2017-07-02T14:30:00Z,28.1324,-97.0345,0.0,6.6,147.0,8.0,'1111122,1111122,1111122' 
TCOON,ioos:station:TCOON:146:1,2017-07-02T15:30:00Z,28.1324,-97.0345,0.0,5.9,148.0,7.9,'1111122,1111122,1111122' 
TCOON,ioos:station:TCOON:146:1,2017-07-02T16:30:00Z,28.1324,-97.0345,0.0,6.2,138.0,7.2,'1111122,1111122,1111122' 
TCOON,ioos:station:TCOON:146:1,2017-07-02T17:30:00Z,28.1324,-97.0345,0.0,6.0,137.0,7.4,'1111122,1111122,1111122' 
TCOON,ioos:station:TCOON:146:1,2017-07-02T18:30:00Z,28.1324,-97.0345,0.0,5.6,132.0,6.7,'1111122,1111122,1111122' 
TCOON,ioos:station:TCOON:146:1,2017-07-02T19:30:00Z,28.1324,-97.0345,0.0,7.1,136.0,8.4,'1111122,1111122,1111122' 
TCOON,ioos:station:TCOON:146:1,2017-07-02T20:30:00Z,28.1324,-97.0345,0.0,7.8,132.0,9.3,'1111122,1111122,1111122' 
TCOON,ioos:station:TCOON:146:1,2017-07-02T21:30:00Z,28.1324,-97.0345,0.0,6.8,134.0,7.9,'1111122,1111122,1111122' 
TCOON,ioos:station:TCOON:146:1,2017-07-02T22:30:00Z,28.1324,-97.0345,0.0,6.7,129.0,8.3,'1111122,1111122,1111122' 
TCOON,ioos:station:TCOON:146:1,2017-07-02T23:30:00Z,28.1324,-97.0345,0.0,7.1,132.0,8.9,'1111122,1111122,1111122' 
TCOON,ioos:station:TCOON:146:1,2017-07-03T00:30:00Z,28.1324,-97.0345,0.0,7.6,138.0,9.2,'1111122,1111122,1111122' 
TCOON,ioos:station:TCOON:146:1,2017-07-03T01:30:00Z,28.1324,-97.0345,0.0,8.5,139.0,10.2,'1111122,1111122,1111122' 
TCOON,ioos:station:TCOON:146:1,2017-07-03T02:30:00Z,28.1324,-97.0345,0.0,9.3,140.0,11.0,'1111122,1111122,1111122' 
TCOON,ioos:station:TCOON:146:1,2017-07-03T03:30:00Z,28.1324,-97.0345,0.0,8.2,146.0,9.5,'1111122,1111122,1111122' 
TCOON,ioos:station:TCOON:146:1,2017-07-03T04:30:00Z,28.1324,-97.0345,0.0,8.5,146.0,10.2,'1111122,1111122,1111122' 
TCOON,ioos:station:TCOON:146:1,2017-07-03T05:30:00Z,28.1324,-97.0345,0.0,8.8,142.0,11.1,'1111122,1111122,1111122' 
TCOON,ioos:station:TCOON:146:1,2017-07-03T06:30:00Z,28.1324,-97.0345,0.0,8.6,148.0,10.3,'1111122,1111122,1111122' 
TCOON,ioos:station:TCOON:146:1,2017-07-03T07:30:00Z,28.1324,-97.0345,0.0,7.5,157.0,10.0,'1111122,1111122,1111122' 
TCOON,ioos:station:TCOON:146:1,2017-07-03T08:30:00Z,28.1324,-97.0345,0.0,9.1,160.0,11.1,'1111122,1111122,1111122' 
TCOON,ioos:station:TCOON:146:1,2017-07-03T09:30:00Z,28.1324,-97.0345,0.0,7.9,158.0,10.1,'1111122,1111122,1111122' 
TCOON,ioos:station:TCOON:146:1,2017-07-03T10:30:00Z,28.1324,-97.0345,0.0,8.1,164.0,10.6,'1111122,1111122,1111122' 
TCOON,ioos:station:TCOON:146:1,2017-07-03T11:30:00Z,28.1324,-97.0345,0.0,7.3,171.0,9.0,'1111122,1111122,1111122' 
TCOON,ioos:station:TCOON:146:1,2017-07-03T12:30:00Z,28.1324,-97.0345,0.0,5.3,179.0,6.7,'1111122,1111122,1111122' 
TCOON,ioos:station:TCOON:146:1,2017-07-03T13:30:00Z,28.1324,-97.0345,0.0,5.8,171.0,7.7,'1111122,1111122,1111122' 
TCOON,ioos:station:TCOON:146:1,2017-07-03T14:30:00Z,28.1324,-97.0345,0.0,6.8,158.0,8.2,'1111122,1111122,1111122' 
TCOON,ioos:station:TCOON:146:1,2017-07-03T15:30:00Z,28.1324,-97.0345,0.0,6.8,153.0,8.6,'1111122,1111122,1111122' 
TCOON,ioos:station:TCOON:146:1,2017-07-03T16:30:00Z,28.1324,-97.0345,0.0,6.7,145.0,8.1,'1111122,1111122,1111122' 
TCOON,ioos:station:TCOON:146:1,2017-07-03T17:30:00Z,28.1324,-97.0345,0.0,7.7,148.0,8.8,'1111122,1111122,1111122' 
TCOON,ioos:station:TCOON:146:1,2017-07-03T18:30:00Z,28.1324,-97.0345,0.0,7.0,144.0,8.2,'1111122,1111122,1111122' 
TCOON,ioos:station:TCOON:146:1,2017-07-03T19:30:00Z,28.1324,-97.0345,0.0,8.4,143.0,10.2,'1111122,1111122,1111122' 
TCOON,ioos:station:TCOON:146:1,2017-07-03T20:30:00Z,28.1324,-97.0345,0.0,7.3,132.0,9.2,'1111122,1111122,1111122' 
TCOON,ioos:station:TCOON:146:1,2017-07-03T21:30:00Z,28.1324,-97.0345,0.0,8.7,132.0,10.3,'1111122,1111122,1111122' 
TCOON,ioos:station:TCOON:146:1,2017-07-03T22:30:00Z,28.1324,-97.0345,0.0,9.0,132.0,10.6,'1111122,1111122,1111122' 
TCOON,ioos:station:TCOON:146:1,2017-07-03T23:30:00Z,28.1324,-97.0345,0.0,9.1,136.0,11.0,'1111122,1111122,1111122' 
TCOON,ioos:station:TCOON:146:1,2017-07-04T00:30:00Z,28.1324,-97.0345,0.0,9.9,141.0,11.7,'1111122,1111122,1111122' 
TCOON,ioos:station:TCOON:146:1,2017-07-04T01:30:00Z,28.1324,-97.0345,0.0,10.3,144.0,11.9,'1111122,1111122,1111122' 
TCOON,ioos:station:TCOON:146:1,2017-07-04T02:30:00Z,28.1324,-97.0345,0.0,10.2,141.0,12.2,'1111122,1111122,1111122' 
TCOON,ioos:station:TCOON:146:1,2017-07-04T03:30:00Z,28.1324,-97.0345,0.0,10.9,144.0,12.7,'1111122,1111122,1111122' 
TCOON,ioos:station:TCOON:146:1,2017-07-04T04:30:00Z,28.1324,-97.0345,0.0,10.6,152.0,13.6,'1111122,1111122,1111122' 
TCOON,ioos:station:TCOON:146:1,2017-07-04T05:30:00Z,28.1324,-97.0345,0.0,11.1,157.0,13.6,'1111122,1111122,1111122' 
TCOON,ioos:station:TCOON:146:1,2017-07-04T06:30:00Z,28.1324,-97.0345,0.0,10.1,158.0,11.7,'1111122,1111122,1111122' 
TCOON,ioos:station:TCOON:146:1,2017-07-04T07:30:00Z,28.1324,-97.0345,0.0,8.2,168.0,10.9,'1111122,1111122,1111122' 
TCOON,ioos:station:TCOON:146:1,2017-07-04T08:30:00Z,28.1324,-97.0345,0.0,7.7,168.0,9.5,'1111122,1111122,1111122' 
TCOON,ioos:station:TCOON:146:1,2017-07-04T09:30:00Z,28.1324,-97.0345,0.0,8.7,168.0,11.6,'1111122,1111122,1111122' 
TCOON,ioos:station:TCOON:146:1,2017-07-04T10:30:00Z,28.1324,-97.0345,0.0,8.6,169.0,10.7,'1111122,1111122,1111122' 
TCOON,ioos:station:TCOON:146:1,2017-07-04T11:30:00Z,28.1324,-97.0345,0.0,8.0,168.0,10.8,'1111122,1111122,1111122' 
TCOON,ioos:station:TCOON:146:1,2017-07-04T12:30:00Z,28.1324,-97.0345,0.0,8.2,160.0,9.9,'1111122,1111122,1111122' 
TCOON,ioos:station:TCOON:146:1,2017-07-04T13:30:00Z,28.1324,-97.0345,0.0,6.3,155.0,11.0,'1111122,1111122,1111122' 
TCOON,ioos:station:TCOON:146:1,2017-07-04T14:30:00Z,28.1324,-97.0345,0.0,6.5,164.0,8.2,'1111122,1111122,1111122' 
TCOON,ioos:station:TCOON:146:1,2017-07-04T15:30:00Z,28.1324,-97.0345,0.0,7.2,159.0,9.3,'1111122,1111122,1111122' 
TCOON,ioos:station:TCOON:146:1,2017-07-04T16:30:00Z,28.1324,-97.0345,0.0,7.1,148.0,8.7,'1111122,1111122,1111122' 
TCOON,ioos:station:TCOON:146:1,2017-07-04T17:30:00Z,28.1324,-97.0345,0.0,7.6,151.0,8.9,'1111122,1111122,1111122' 
TCOON,ioos:station:TCOON:146:1,2017-07-04T18:30:00Z,28.1324,-97.0345,0.0,7.9,150.0,9.4,'1111122,1111122,1111122' 
TCOON,ioos:station:TCOON:146:1,2017-07-04T19:30:00Z,28.1324,-97.0345,0.0,8.3,148.0,10.1,'1111122,1111122,1111122' 
TCOON,ioos:station:TCOON:146:1,2017-07-04T20:30:00Z,28.1324,-97.0345,0.0,7.6,147.0,8.9,'1111122,1111122,1111122' 
TCOON,ioos:station:TCOON:146:1,2017-07-04T21:30:00Z,28.1324,-97.0345,0.0,7.9,140.0,9.4,'1111122,1111122,1111122' 
TCOON,ioos:station:TCOON:146:1,2017-07-04T22:30:00Z,28.1324,-97.0345,0.0,8.1,130.0,9.6,'1111122,1111122,1111122' 
TCOON,ioos:station:TCOON:146:1,2017-07-04T23:30:00Z,28.1324,-97.0345,0.0,7.9,131.0,9.7,'1111122,1111122,1111122' 
TCOON,ioos:station:TCOON:146:1,2017-07-05T00:30:00Z,28.1324,-97.0345,0.0,8.5,132.0,10.4,'1111122,1111122,1111122' 
TCOON,ioos:station:TCOON:146:1,2017-07-05T01:30:00Z,28.1324,-97.0345,0.0,8.3,129.0,10.0,'1111122,1111122,1111122' 
TCOON,ioos:station:TCOON:146:1,2017-07-05T02:30:00Z,28.1324,-97.0345,0.0,8.0,138.0,9.7,'1111122,1111122,1111122' 
TCOON,ioos:station:TCOON:146:1,2017-07-05T03:30:00Z,28.1324,-97.0345,0.0,7.8,139.0,9.2,'1111122,1111122,1111122' 
TCOON,ioos:station:TCOON:146:1,2017-07-05T04:30:00Z,28.1324,-97.0345,0.0,8.6,151.0,9.9,'1111122,1111122,1111122' 
TCOON,ioos:station:TCOON:146:1,2017-07-05T05:30:00Z,28.1324,-97.0345,0.0,9.0,149.0,10.6,'1111122,1111122,1111122' 
TCOON,ioos:station:TCOON:146:1,2017-07-05T06:30:00Z,28.1324,-97.0345,0.0,9.1,147.0,11.0,'1111122,1111122,1111122' 
TCOON,ioos:station:TCOON:146:1,2017-07-05T07:30:00Z,28.1324,-97.0345,0.0,8.4,159.0,10.1,'1111122,1111122,1111122' 
TCOON,ioos:station:TCOON:146:1,2017-07-05T08:30:00Z,28.1324,-97.0345,0.0,8.7,162.0,11.4,'1111122,1111122,1111122' 
TCOON,ioos:station:TCOON:146:1,2017-07-05T09:30:00Z,28.1324,-97.0345,0.0,7.0,164.0,8.5,'1111122,1111122,1111122' 
TCOON,ioos:station:TCOON:146:1,2017-07-05T10:30:00Z,28.1324,-97.0345,0.0,7.7,165.0,9.5,'1111122,1111122,1111122' 
TCOON,ioos:station:TCOON:146:1,2017-07-05T11:30:00Z,28.1324,-97.0345,0.0,5.9,174.0,7.8,'1111122,1111122,1111122' 
TCOON,ioos:station:TCOON:146:1,2017-07-05T12:30:00Z,28.1324,-97.0345,0.0,4.6,178.0,6.3,'1111122,1111122,1111122' 
TCOON,ioos:station:TCOON:146:1,2017-07-05T13:30:00Z,28.1324,-97.0345,0.0,5.2,171.0,8.1,'1111122,1111122,1111122' 
TCOON,ioos:station:TCOON:146:1,2017-07-05T14:30:00Z,28.1324,-97.0345,0.0,5.2,163.0,6.5,'1111122,1111122,1111122' 
TCOON,ioos:station:TCOON:146:1,2017-07-05T15:30:00Z,28.1324,-97.0345,0.0,3.7,132.0,4.6,'1111122,1111122,1111122' 
TCOON,ioos:station:TCOON:146:1,2017-07-05T16:30:00Z,28.1324,-97.0345,0.0,3.1,132.0,3.9,'1111122,1111122,1111122' 
TCOON,ioos:station:TCOON:146:1,2017-07-05T17:30:00Z,28.1324,-97.0345,0.0,4.4,136.0,6.1,'1111122,1111122,1111122' 
TCOON,ioos:station:TCOON:146:1,2017-07-05T18:30:00Z,28.1324,-97.0345,0.0,5.6,135.0,6.8,'1111122,1111122,1111122' 
TCOON,ioos:station:TCOON:146:1,2017-07-05T19:30:00Z,28.1324,-97.0345,0.0,5.6,129.0,6.7,'1111122,1111122,1111122' 
TCOON,ioos:station:TCOON:146:1,2017-07-05T20:30:00Z,28.1324,-97.0345,0.0,6.6,133.0,7.8,'1111122,1111122,1111122' 
TCOON,ioos:station:TCOON:146:1,2017-07-05T21:30:00Z,28.1324,-97.0345,0.0,7.4,136.0,8.6,'1111122,1111122,1111122' 
TCOON,ioos:station:TCOON:146:1,2017-07-05T22:30:00Z,28.1324,-97.0345,0.0,8.3,133.0,9.9,'1111122,1111122,1111122' 
TCOON,ioos:station:TCOON:146:1,2017-07-05T23:30:00Z,28.1324,-97.0345,0.0,7.9,133.0,9.3,'1111122,1111122,1111122' 
TCOON,ioos:station:TCOON:146:1,2017-07-06T00:30:00Z,28.1324,-97.0345,0.0,7.7,134.0,9.5,'1111122,1111122,1111122' 
TCOON,ioos:station:TCOON:146:1,2017-07-06T01:30:00Z,28.1324,-97.0345,0.0,8.3,137.0,10.1,'1111122,1111122,1111122' 
TCOON,ioos:station:TCOON:146:1,2017-07-06T02:30:00Z,28.1324,-97.0345,0.0,7.9,138.0,9.3,'1111122,1111122,1111122' 
TCOON,ioos:station:TCOON:146:1,2017-07-06T03:30:00Z,28.1324,-97.0345,0.0,7.6,144.0,9.1,'1111122,1111122,1111122' 
TCOON,ioos:station:TCOON:146:1,2017-07-06T04:30:00Z,28.1324,-97.0345,0.0,7.8,145.0,9.3,'1111122,1111122,1111122' 
TCOON,ioos:station:TCOON:146:1,2017-07-06T05:30:00Z,28.1324,-97.0345,0.0,7.4,147.0,8.6,'1111122,1111122,1111122' 
TCOON,ioos:station:TCOON:146:1,2017-07-06T06:30:00Z,28.1324,-97.0345,0.0,8.2,145.0,10.3,'1111122,1111122,1111122' 
TCOON,ioos:station:TCOON:146:1,2017-07-06T07:30:00Z,28.1324,-97.0345,0.0,8.5,147.0,10.3,'1111122,1111122,1111122' 
TCOON,ioos:station:TCOON:146:1,2017-07-06T08:30:00Z,28.1324,-97.0345,0.0,6.9,151.0,8.2,'1111122,1111122,1111122' 
TCOON,ioos:station:TCOON:146:1,2017-07-06T09:30:00Z,28.1324,-97.0345,0.0,5.3,156.0,6.3,'1111122,1111122,1111122' 
TCOON,ioos:station:TCOON:146:1,2017-07-06T10:30:00Z,28.1324,-97.0345,0.0,4.7,146.0,5.7,'1111122,1111122,1111122' 
TCOON,ioos:station:TCOON:146:1,2017-07-06T11:30:00Z,28.1324,-97.0345,0.0,5.2,148.0,6.0,'1111122,1111122,1111122' 
TCOON,ioos:station:TCOON:146:1,2017-07-06T12:30:00Z,28.1324,-97.0345,0.0,4.3,135.0,5.6,'1111122,1111122,1111122' 
TCOON,ioos:station:TCOON:146:1,2017-07-06T13:30:00Z,28.1324,-97.0345,0.0,3.9,134.0,5.0,'1111122,1111122,1111122' 
TCOON,ioos:station:TCOON:146:1,2017-07-06T14:30:00Z,28.1324,-97.0345,0.0,4.0,109.0,5.5,'1111122,1111122,1111122' 
TCOON,ioos:station:TCOON:146:1,2017-07-06T15:30:00Z,28.1324,-97.0345,0.0,3.7,144.0,4.4,'1111122,1111122,1111122' 
TCOON,ioos:station:TCOON:146:1,2017-07-06T16:30:00Z,28.1324,-97.0345,0.0,4.5,132.0,5.4,'1111122,1111122,1111122' 
TCOON,ioos:station:TCOON:146:1,2017-07-06T17:30:00Z,28.1324,-97.0345,0.0,5.0,134.0,6.0,'1111122,1111122,1111122' 
TCOON,ioos:station:TCOON:146:1,2017-07-06T18:30:00Z,28.1324,-97.0345,0.0,4.2,133.0,5.4,'1111122,1111122,1111122' 
TCOON,ioos:station:TCOON:146:1,2017-07-06T19:30:00Z,28.1324,-97.0345,0.0,4.3,119.0,5.6,'1111122,1111122,1111122' 
TCOON,ioos:station:TCOON:146:1,2017-07-06T20:30:00Z,28.1324,-97.0345,0.0,5.3,128.0,6.2,'1111122,1111122,1111122' 
TCOON,ioos:station:TCOON:146:1,2017-07-06T21:30:00Z,28.1324,-97.0345,0.0,6.0,133.0,7.3,'1111122,1111122,1111122' 
TCOON,ioos:station:TCOON:146:1,2017-07-06T22:30:00Z,28.1324,-97.0345,0.0,5.6,122.0,7.8,'1111122,1111122,1111122' 
TCOON,ioos:station:TCOON:146:1,2017-07-06T23:30:00Z,28.1324,-97.0345,0.0,7.2,130.0,9.2,'1111122,1111122,1111122' 
TCOON,ioos:station:TCOON:146:1,2017-07-07T00:30:00Z,28.1324,-97.0345,0.0,5.8,132.0,7.9,'1111122,1111122,1111122' 
TCOON,ioos:station:TCOON:146:1,2017-07-07T01:30:00Z,28.1324,-97.0345,0.0,5.0,117.0,6.4,'1111122,1111122,1111122' 
TCOON,ioos:station:TCOON:146:1,2017-07-07T02:30:00Z,28.1324,-97.0345,0.0,6.5,133.0,7.9,'1111122,1111122,1111122' 
TCOON,ioos:station:TCOON:146:1,2017-07-07T03:30:00Z,28.1324,-97.0345,0.0,6.4,135.0,7.6,'1111122,1111122,1111122' 
TCOON,ioos:station:TCOON:146:1,2017-07-07T04:30:00Z,28.1324,-97.0345,0.0,6.9,141.0,8.6,'1111122,1111122,1111122' 
TCOON,ioos:station:TCOON:146:1,2017-07-07T05:30:00Z,28.1324,-97.0345,0.0,7.2,142.0,8.5,'1111122,1111122,1111122' 
TCOON,ioos:station:TCOON:146:1,2017-07-07T06:30:00Z,28.1324,-97.0345,0.0,7.0,151.0,8.9,'1111122,1111122,1111122' 
TCOON,ioos:station:TCOON:146:1,2017-07-07T07:30:00Z,28.1324,-97.0345,0.0,6.5,162.0,8.0,'1111122,1111122,1111122' 
TCOON,ioos:station:TCOON:146:1,2017-07-07T08:30:00Z,28.1324,-97.0345,0.0,5.6,164.0,7.6,'1111122,1111122,1111122' 
TCOON,ioos:station:TCOON:146:1,2017-07-07T09:30:00Z,28.1324,-97.0345,0.0,4.6,162.0,5.8,'1111122,1111122,1111122' 
TCOON,ioos:station:TCOON:146:1,2017-07-07T10:30:00Z,28.1324,-97.0345,0.0,3.0,192.0,4.0,'1111122,1111122,1111122' 
TCOON,ioos:station:TCOON:146:1,2017-07-07T11:30:00Z,28.1324,-97.0345,0.0,2.1,204.0,2.7,'1111122,1111122,1111122' 
TCOON,ioos:station:TCOON:146:1,2017-07-07T12:30:00Z,28.1324,-97.0345,0.0,2.3,191.0,2.8,'1111122,1111122,1111122' 
TCOON,ioos:station:TCOON:146:1,2017-07-07T13:30:00Z,28.1324,-97.0345,0.0,1.7,167.0,2.3,'1111122,1111122,1111122' 
TCOON,ioos:station:TCOON:146:1,2017-07-07T14:30:00Z,28.1324,-97.0345,0.0,5.0,222.0,8.8,'1111122,1111122,1111122' 
TCOON,ioos:station:TCOON:146:1,2017-07-07T15:30:00Z,28.1324,-97.0345,0.0,2.0,254.0,3.3,'1111122,1111122,1111122' 
TCOON,ioos:station:TCOON:146:1,2017-07-07T16:30:00Z,28.1324,-97.0345,0.0,0.6,276.0,1.2,'1111122,1111122,1111122' 
TCOON,ioos:station:TCOON:146:1,2017-07-07T18:30:00Z,28.1324,-97.0345,0.0,3.0,133.0,4.1,'1111122,1111122,1111122' 
TCOON,ioos:station:TCOON:146:1,2017-07-07T19:30:00Z,28.1324,-97.0345,0.0,4.1,127.0,5.3,'1111122,1111122,1111122' 
TCOON,ioos:station:TCOON:146:1,2017-07-07T20:30:00Z,28.1324,-97.0345,0.0,5.4,122.0,7.1,'1111122,1111122,1111122' 
TCOON,ioos:station:TCOON:146:1,2017-07-07T21:30:00Z,28.1324,-97.0345,0.0,6.1,133.0,7.7,'1111122,1111122,1111122' 
TCOON,ioos:station:TCOON:146:1,2017-07-07T22:30:00Z,28.1324,-97.0345,0.0,6.2,135.0,7.5,'1111122,1111122,1111122' 
TCOON,ioos:station:TCOON:146:1,2017-07-07T23:30:00Z,28.1324,-97.0345,0.0,5.7,153.0,7.3,'1111122,1111122,1111122' 
TCOON,ioos:station:TCOON:146:1,2017-07-08T00:30:00Z,28.1324,-97.0345,0.0,4.2,140.0,5.5,'1111122,1111122,1111122' 
TCOON,ioos:station:TCOON:146:1,2017-07-08T01:30:00Z,28.1324,-97.0345,0.0,5.2,136.0,6.6,'1111122,1111122,1111122' 
TCOON,ioos:station:TCOON:146:1,2017-07-08T02:30:00Z,28.1324,-97.0345,0.0,5.4,145.0,6.8,'1111122,1111122,1111122' 
TCOON,ioos:station:TCOON:146:1,2017-07-08T03:30:00Z,28.1324,-97.0345,0.0,5.9,158.0,7.2,'1111122,1111122,1111122' 
TCOON,ioos:station:TCOON:146:1,2017-07-08T04:30:00Z,28.1324,-97.0345,0.0,4.1,174.0,5.9,'1111122,1111122,1111122' 
TCOON,ioos:station:TCOON:146:1,2017-07-08T05:30:00Z,28.1324,-97.0345,0.0,3.6,191.0,4.4,'1111122,1111122,1111122' 
TCOON,ioos:station:TCOON:146:1,2017-07-08T06:30:00Z,28.1324,-97.0345,0.0,3.5,200.0,4.4,'1111122,1111122,1111122' 
TCOON,ioos:station:TCOON:146:1,2017-07-08T07:30:00Z,28.1324,-97.0345,0.0,3.1,199.0,3.9,'1111122,1111122,1111122' 
TCOON,ioos:station:TCOON:146:1,2017-07-08T08:30:00Z,28.1324,-97.0345,0.0,3.9,210.0,4.6,'1111122,1111122,1111122' 
TCOON,ioos:station:TCOON:146:1,2017-07-08T09:30:00Z,28.1324,-97.0345,0.0,3.9,223.0,4.7,'1111122,1111122,1111122' 
TCOON,ioos:station:TCOON:146:1,2017-07-08T10:30:00Z,28.1324,-97.0345,0.0,3.4,211.0,4.1,'1111122,1111122,1111122' 
TCOON,ioos:station:TCOON:146:1,2017-07-08T11:30:00Z,28.1324,-97.0345,0.0,2.9,213.0,4.6,'1111122,1111122,1111122' 
TCOON,ioos:station:TCOON:146:1,2017-07-08T12:30:00Z,28.1324,-97.0345,0.0,3.3,288.0,3.9,'1111122,1111122,1111122' 
TCOON,ioos:station:TCOON:146:1,2017-07-08T13:30:00Z,28.1324,-97.0345,0.0,3.0,291.0,4.0,'1111122,1111122,1111122' 
TCOON,ioos:station:TCOON:146:1,2017-07-08T14:30:00Z,28.1324,-97.0345,0.0,1.3,303.0,2.0,'1111122,1111122,1111122' 
TCOON,ioos:station:TCOON:146:1,2017-07-08T15:30:00Z,28.1324,-97.0345,0.0,0.4,5.0,1.1,'1111122,1111122,1111122' 
TCOON,ioos:station:TCOON:146:1,2017-07-08T16:30:00Z,28.1324,-97.0345,0.0,0.2,196.0,1.0,'1111122,1111122,1111122' 
TCOON,ioos:station:TCOON:146:1,2017-07-08T17:30:00Z,28.1324,-97.0345,0.0,0.1,126.0,0.9,'1111122,1111122,1111122' 
TCOON,ioos:station:TCOON:146:1,2017-07-08T18:30:00Z,28.1324,-97.0345,0.0,3.7,134.0,4.5,'1111122,1111122,1111122' 
TCOON,ioos:station:TCOON:146:1,2017-07-08T19:30:00Z,28.1324,-97.0345,0.0,4.3,138.0,5.7,'1111122,1111122,1111122' 
TCOON,ioos:station:TCOON:146:1,2017-07-08T20:30:00Z,28.1324,-97.0345,0.0,5.9,136.0,7.5,'1111122,1111122,1111122' 
TCOON,ioos:station:TCOON:146:1,2017-07-08T21:30:00Z,28.1324,-97.0345,0.0,7.3,147.0,8.5,'1111122,1111122,1111122' 
TCOON,ioos:station:TCOON:146:1,2017-07-08T22:30:00Z,28.1324,-97.0345,0.0,6.8,152.0,8.6,'1111122,1111122,1111122' 
TCOON,ioos:station:TCOON:146:1,2017-07-09T02:30:00Z,28.1324,-97.0345,0.0,5.4,144.0,6.6,'1111122,1111122,1111122' 
TCOON,ioos:station:TCOON:146:1,2017-07-09T03:30:00Z,28.1324,-97.0345,0.0,7.3,145.0,8.5,'1111122,1111122,1111122' 
TCOON,ioos:station:TCOON:146:1,2017-07-09T04:30:00Z,28.1324,-97.0345,0.0,7.2,159.0,9.0,'1111122,1111122,1111122' 
TCOON,ioos:station:TCOON:146:1,2017-07-09T05:30:00Z,28.1324,-97.0345,0.0,5.3,159.0,7.1,'1111122,1111122,1111122' 
TCOON,ioos:station:TCOON:146:1,2017-07-09T06:30:00Z,28.1324,-97.0345,0.0,4.6,175.0,6.4,'1111122,1111122,1111122' 
TCOON,ioos:station:TCOON:146:1,2017-07-09T07:30:00Z,28.1324,-97.0345,0.0,3.5,197.0,4.6,'1111122,1111122,1111122' 
TCOON,ioos:station:TCOON:146:1,2017-07-09T08:30:00Z,28.1324,-97.0345,0.0,4.0,195.0,5.0,'1111122,1111122,1111122' 
TCOON,ioos:station:TCOON:146:1,2017-07-09T09:30:00Z,28.1324,-97.0345,0.0,4.4,226.0,5.9,'1111122,1111122,1111122' 
TCOON,ioos:station:TCOON:146:1,2017-07-09T10:30:00Z,28.1324,-97.0345,0.0,3.8,264.0,5.0,'1111122,1111122,1111122' 
TCOON,ioos:station:TCOON:146:1,2017-07-09T11:30:00Z,28.1324,-97.0345,0.0,3.2,229.0,4.1,'1111122,1111122,1111122' 
TCOON,ioos:station:TCOON:146:1,2017-07-09T12:30:00Z,28.1324,-97.0345,0.0,3.5,221.0,4.4,'1111122,1111122,1111122' 
TCOON,ioos:station:TCOON:146:1,2017-07-09T13:30:00Z,28.1324,-97.0345,0.0,2.0,219.0,3.0,'1111122,1111122,1111122' 
TCOON,ioos:station:TCOON:146:1,2017-07-09T14:30:00Z,28.1324,-97.0345,0.0,2.6,224.0,3.4,'1111122,1111122,1111122' 
TCOON,ioos:station:TCOON:146:1,2017-07-09T15:30:00Z,28.1324,-97.0345,0.0,1.3,314.0,2.0,'1111122,1111122,1111122' 
TCOON,ioos:station:TCOON:146:1,2017-07-09T16:30:00Z,28.1324,-97.0345,0.0,1.0,334.0,2.1,'1111122,1111122,1111122' 
TCOON,ioos:station:TCOON:146:1,2017-07-10T09:30:00Z,28.1324,-97.0345,0.0,5.1,198.0,6.6,'1111122,1111122,1111122' 
TCOON,ioos:station:TCOON:146:1,2017-07-10T10:30:00Z,28.1324,-97.0345,0.0,5.4,193.0,6.4,'1111122,1111122,1111122' 
TCOON,ioos:station:TCOON:146:1,2017-07-10T11:30:00Z,28.1324,-97.0345,0.0,3.2,203.0,4.2,'1111122,1111122,1111122' 